Voltar ao catálogo

CALSPHERE 4

A

AtivoMilitarPO
NORAD 1520·PAYLOAD·🇺🇸 United States

Lançado Aug 13, 1965 de Vandenberg Space Force Base

Loading…

Próximas Passagens (próximas 24 horas)

TLE

AtualizadoSource: Space-Track

Época: Sep 14, 2026, 14:56 UTC

1 01520U 65065H   26257.62277631  .00000071  00000-0  11837-3 0  9997
2 01520  89.8903 121.5865 0068563 210.1031 180.2221 13.36291031974657

Acompanhe CALSPHERE 4 em tempo real com AllMySat

Download on the App Store